This is the latest recevied weather packets stored in our database for station/object KC2TER. If no packets are shown the sender has not sent any weather packets the latest 10 day(s).
| Time | Temp. | Humidity | Pressure | Rain* | Wind** | Luminosity | Snow |
|---|---|---|---|---|---|---|---|
| 1778155444 | 10.56° C | 90% | 1011.4 hPa | 0 mm | - | 69 W/m² | - |
| 1778155141 | 10.56° C | 91% | 1011.2 hPa | 0 mm | - | 90 W/m² | - |
| 1778154836 | 10.56° C | 91% | 1011.2 hPa | 0 mm | - | 76 W/m² | - |
| 1778154532 | 10.56° C | 91% | 1011.1 hPa | 0 mm | - | 54 W/m² | - |
| 1778154230 | 10.56° C | 92% | 1011.3 hPa | 0 mm | - | 33 W/m² | - |
| 1778153927 | 10.56° C | 92% | 1010.9 hPa | 0 mm | - | 59 W/m² | - |
| 1778153624 | 10.56° C | 92% | 1010.9 hPa | 0 mm | - | 42 W/m² | - |
| 1778153321 | 10° C | 92% | 1010.9 hPa | 0 mm | - | 29 W/m² | - |
| 1778153018 | 10.56° C | 92% | 1010.8 hPa | 0 mm | - | 24 W/m² | - |
| 1778152716 | 10° C | 92% | 1011 hPa | 0 mm | - | 34 W/m² | - |
| 1778152413 | 10° C | 93% | 1010.7 hPa | 0 mm | - | 35 W/m² | - |
| 1778152109 | 10° C | 93% | 1011 hPa | 0 mm | - | 30 W/m² | - |
| 1778151805 | 10° C | 93% | 1010.7 hPa | 0 mm | - | 36 W/m² | - |
| 1778151502 | 10° C | 93% | 1010.5 hPa | 0 mm | - | 31 W/m² | - |
| 1778151198 | 10° C | 93% | 1010.4 hPa | 0 mm | - | 18 W/m² | - |
| 1778150896 | 10° C | 93% | 1010.3 hPa | 0 mm | - | 24 W/m² | - |
| 1778150592 | 10° C | 93% | 1010.3 hPa | 0 mm | - | 15 W/m² | - |
| 1778150288 | 10° C | 93% | 1010.5 hPa | 0 mm | - | 7 W/m² | - |
| 1778149984 | 10° C | 93% | 1010.4 hPa | 0 mm | - | 7 W/m² | - |
| 1778149681 | 10° C | 93% | 1010.2 hPa | 0 mm | - | 3 W/m² | - |
| 1778149378 | 10° C | 93% | 1010.2 hPa | 0 mm | - | 4 W/m² | - |
| 1778149074 | 10° C | 93% | 1010.1 hPa | 0 mm | - | 6 W/m² | - |
| 1778148768 | 10° C | 93% | 1010.2 hPa | 0 mm | - | 2 W/m² | - |
| 1778148466 | 10° C | 93% | 1010.1 hPa | 0 mm | - | 2 W/m² | - |
| 1778148164 | 10° C | 93% | 1009.8 hPa | 0 mm | - | 0 W/m² | - |
* Rain latest hour (hover to see other rain measurements)
** Current wind speed in m/s (hover to see current wind gust speed)